Location: Hazelwood
(35.4687°N, 83.0040°W)
Time: 05:07:56
(UTC+00:00)

N. Korean satellite - Visible Passes

Search period start: 30 November 2022 00:00
Search period end: 10 December 2022 00:00
Orbit: 421 x 454 km, 97.3° (Epoch: 29 November)

Date Brightness Start Highest point End Pass type
(mag) Time Alt. Az. Time Alt. Az. Time Alt. Az.
30 Nov 6.3 10:48:36 10° N 10:52:01 89° WNW 10:55:23 10° SSW visible
30 Nov 9.4 22:47:57 10° SSW 22:50:34 21° W 22:53:13 10° NW visible
01 Dec 8.9 10:10:27 10° NE 10:13:13 23° E 10:15:57 10° SSE visible
01 Dec 8.1 11:43:30 10° NW 11:45:29 15° WNW 11:47:28 10° WSW visible
02 Dec 6.5 11:03:38 10° N 11:06:57 51° WNW 11:10:12 10° SSW visible
02 Dec 9.8 23:03:50 10° SW 23:05:34 13° W 23:07:19 10° WNW visible
03 Dec 7.9 10:24:58 10° NNE 10:28:09 37° E 10:31:17 10° SSE visible
04 Dec 9.9 09:48:19 10° E 09:49:06 11° E 09:49:53 10° ESE visible
04 Dec 7.1 11:18:40 10° N 11:21:41 30° WNW 11:24:40 10° SW visible
05 Dec 6.7 10:39:32 10° NNE 10:42:55 64° ESE 10:46:13 10° S visible
06 Dec 9.4 10:01:36 10° NE 10:03:52 17° E 10:06:06 10° SE visible
06 Dec 7.7 11:33:46 10° NNW 11:36:15 19° WNW 11:38:43 10° WSW visible
07 Dec 6.2 10:54:06 10° N 10:57:29 74° WNW 11:00:48 10° SSW visible
07 Dec 9.5 22:53:31 10° SW 22:55:56 18° W 22:58:22 10° NW visible
08 Dec 8.6 10:15:33 10° NE 10:18:27 26° E 10:21:17 10° SSE visible
08 Dec 8.2 11:49:07 10° NW 11:50:38 13° WNW 11:52:10 10° W visible
09 Dec 6.6 11:08:40 10° N 11:11:53 42° WNW 11:15:02 10° SSW visible
09 Dec 9.9 23:09:06 10° WSW 23:10:25 12° W 23:11:44 10° WNW visible
